[Iaude] MPEC J308: 2024 FP17 [a=2.27,e=0.47,i=26.3,H=22.3]
    mpec at cfa.harvard.edu 
    mpec at cfa.harvard.edu
       
    Wed May 15 07:42:46 EDT 2024
    
    
  
M.P.E.C. 2024-J308                                 Issued 2024 May 15, 11:41 UT
     The Minor Planet Electronic Circulars contain information on unusual
         minor planets, routine data on comets and natural satellites,
         and occasional editorial announcements.  They are published
    on behalf of Division F of the International Astronomical Union by the
          Minor Planet Center, Smithsonian Astrophysical Observatory,
                          Cambridge, MA 02138, U.S.A.
			  
             Prepared using the Tamkin Foundation Computer Network
                              MPC at CFA.HARVARD.EDU
            URL https://www.minorplanetcenter.net/    ISSN 1523-6714
                                   2024 FP17                                    
Observations:
     K24F17P* C2024 03 19.57181314 39 47.391-01 32 36.23         21.47wXEJ308F51
     K24F17P  C2024 03 19.58412414 39 50.186-01 31 31.83         21.12wXEJ308F51
     K24F17P  C2024 03 19.59706514 39 53.155-01 30 24.27         21.43wXEJ308F51
     K24F17P  C2024 03 19.60942414 39 55.912-01 29 20.98         21.21wXEJ308F51
     K24F17P  C2024 05 08.39921317 12 42.620+49 38 55.90               VEJ308V00
     K24F17P  C2024 05 08.40870017 12 43.333+49 39 04.72         22.55GVEJ308V00
     K24F17P  C2024 05 08.41620017 12 43.837+49 39 12.35         22.68GVEJ308V00
     K24F17P  C2024 05 08.42369817 12 44.399+49 39 19.51         23.35GVEJ308V00
     K24F17P mC2024 05 08.44985517 12 46.300+49 39 44.00               VEJ308V00
     K24F17P mC2024 05 08.45346317 12 46.500+49 39 47.60               VEJ308V00
     K24F17P mC2024 05 08.46067217 12 47.000+49 39 54.00               VEJ308V00
     K24F17P mC2024 05 09.39607917 14 03.455+49 54 26.28         22.46GVEJ308V00
     K24F17P mC2024 05 09.39980517 14 03.728+49 54 30.17         22.65GVEJ308V00
     K24F17P mC2024 05 09.40356617 14 03.998+49 54 33.30         22.88GVEJ308V00
     K24F17P mC2024 05 09.40728217 14 04.243+49 54 36.76         22.79GVEJ308V00
     K24F17P KC2024 05 12.35577217 17 40.366+50 33 37.92         22.7 GVEJ308H01
     K24F17P KC2024 05 12.36352117 17 40.808+50 33 43.17         22.8 GVEJ308H01
     K24F17P KC2024 05 12.37178417 17 41.285+50 33 49.12         22.5 GVEJ308H01
     K24F17P KC2024 05 12.37884417 17 41.693+50 33 54.04         22.8 GVEJ308H01
     K24F17P  C2024 05 13.29920717 18 42.956+50 44 03.21         23.4 GVEJ308H01
     K24F17P  C2024 05 13.30356617 18 43.195+50 44 06.07         22.6 GVEJ308H01
     K24F17P  C2024 05 13.31504817 18 43.826+50 44 13.63         22.5 GVEJ308H01
     K24F17P  C2024 05 13.32205517 18 44.198+50 44 18.27         22.9 GVEJ308H01
Observer details:
F51 Pan-STARRS 1, Haleakala.  Observers J. Herman, T. Lowe, P. Minguez, A.
    Schultz, I. Smith.  Measurers K. Chambers, T. de Boer, J. Fairlamb, H.
    Gao, M. Huber, C.-C. Lin, E. Magnier, Y. Ramanjooloo, R. Wainscoat, R.
    Weryk.  1.8-m Ritchey-Chretien + CCD.
H01 Magdalena Ridge Observatory, Socorro.  Observers W. H. Ryan, E. V. Ryan.
    Measurer W. H. Ryan.  2.4-m f/8.9 Ritchey-Chretien + CCD.
V00 Kitt Peak-Bok.  Observer R. A. Mastaler.  Measurers M. J. Brucker, C. E.
    Woodward, T. Beuden, V. F. Carvajal, D. Fay, J. B. Fazekas, D. C. Fuls, A.
    R. Gibbs, H. Groeller, J. K. Hogan, R. A. Kowalski, S. M. Larson, C.
    Lejoly, G. J. Leonard, R. A. Mastaler, R. S. McMillan, D. Rankin, R. L.
    Seaman, F. C. Shelly, K. W. Wierzchos.  2.25-m reflector + 4x4K mosaic
    CCD.
Orbital elements:
2024 FP17                                                Earth MOID = 0.2511 AU
Epoch 2024 Mar. 31.0 TT = JDT 2460400.5                 Veres                   
M 354.59757              (2000.0)            P               Q                  
n   0.28773881     Peri.   34.16277     -0.81684415     +0.57678516             
a   2.2723249      Node   181.18695     -0.57644988     -0.81556233             
e   0.4717732      Incl.   26.34655     +0.02170629     +0.04665800             
P   3.43           H   22.30          G   0.15           U   7                  
Residuals in seconds of arc
240319 F51  0.1-  0.1-    240508 V00  0.1+  0.2-    240512 H01  0.1-  0.2-
240319 F51  0.1-  0.0     240508 V00  0.5-  0.0     240512 H01  0.0   0.0
240319 F51  0.2+  0.1+    240508 V00  0.8-  0.3-    240512 H01  0.0   0.0
240319 F51 (0.7-  1.1-)   240509 V00  0.2-  0.3-    240513 H01  0.0   0.1+
240508 V00  0.1-  0.1+    240509 V00  0.0   0.2+    240513 H01  0.0   0.0
240508 V00  0.2+  0.3-    240509 V00  0.1+  0.0     240513 H01  0.0   0.1-
240508 V00  0.2-  0.1+    240509 V00  0.0   0.1+    240513 H01  0.1-  0.1-
240508 V00  0.0   0.1+    240512 H01  0.0   0.0
Ephemeris:
2024 FP17                a,e,i = 2.27, 0.47, 26                  q = 1.2003
Date    TT    R. A. (2000) Decl.     Delta      r    Elong.  Phase     V
2024 04 15    16 19 30.3 +35 54 12   0.3282  1.2010   119.9    46.4    22.0
...
2024 04 30    16 58 29.0 +46 35 24   0.4022  1.2064   110.1    51.6    22.6
...
2024 05 08    17 12 09.0 +49 32 16   0.4448  1.2180   107.3    52.3    22.9
...
2024 05 14    17 19 26.1 +50 51 07   0.4761  1.2305   106.0    52.1    23.1
2024 05 15    17 20 25.9 +51 00 26   0.4812  1.2328   105.9    52.1    23.1
2024 05 16    17 21 22.3 +51 08 44   0.4863  1.2353   105.8    52.0    23.1
...
2024 05 22    17 25 54.2 +51 38 37   0.5160  1.2518   105.3    51.2    23.2
...
2024 05 30    17 29 30.3 +51 30 40   0.5534  1.2782   105.5    49.8    23.4
...
2024 06 14    17 31 49.2 +49 05 39   0.6175  1.3391   107.6    46.3    23.6
M. P. C. Staff               (C) Copyright 2024 MPC           M.P.E.C. 2024-J308
    
    
More information about the Iaude
mailing list